| time (UTC) | temp C | wind direction | speed KPH | gust KPH | rain 1hr cm | rain 24hr cm | rain mn cm | humidity % | barometer mb |
| 20260505101842 | 13 | 227 | 1.6 | 11.3 | 0.00 | 0.00 | 0.00 | 78 | 1014.7 |
| 20260505101332 | 13 | 200 | 1.6 | 6.4 | 0.00 | 0.00 | 0.00 | 79 | 1014.5 |
| 20260505100832 | 13 | 174 | 0.0 | 6.4 | 0.00 | 0.00 | 0.00 | 79 | 1014.4 |
| 20260505100335 | 13 | 183 | 0.0 | 6.4 | 0.00 | 0.00 | 0.00 | 80 | 1014.6 |
| 20260505100328 | 13 | 203 | 0.0 | 1.6 | 0.00 | 0.00 | 0.00 | 80 | 1014.5 |
| 20260505095329 | 13 | 163 | 0.0 | 1.6 | 0.00 | 0.00 | 0.00 | 80 | 1014.6 |
| 20260505095100 | 13 | 72 | 0.0 | 1.6 | 0.00 | 0.00 | 0.00 | 80 | 1014.3 |
| 20260505094320 | 13 | 176 | 0.0 | 1.6 | 0.00 | 0.00 | 0.00 | 80 | 1014.5 |
| 20260505093809 | 13 | 190 | 0.0 | 0.0 | 0.00 | 0.00 | 0.00 | 80 | 1014.5 |
| 20260505093302 | 13 | 175 | 0.0 | 0.0 | 0.00 | 0.00 | 0.00 | 80 | 1014.4 |
| 20260505092802 | 13 | 178 | 0.0 | 0.0 | 0.00 | 0.00 | 0.00 | 80 | 1014.4 |
| 20260505092259 | 13 | 189 | 0.0 | 0.0 | 0.00 | 0.00 | 0.00 | 80 | 1014.2 |
| 20260505092031 | 13 | 189 | 0.0 | 1.6 | 0.00 | 0.00 | 0.00 | 80 | 1014.2 |
| 20260505091300 | 13 | 191 | 0.0 | 1.6 | 0.00 | 0.00 | 0.00 | 80 | 1014.2 |
| 20260505090800 | 12 | 199 | 0.0 | 0.0 | 0.00 | 0.00 | 0.00 | 81 | 1014.2 |
| 20260505090259 | 12 | 121 | 0.0 | 3.2 | 0.00 | 0.00 | 0.00 | 81 | 1014.4 |
| 20260505085759 | 12 | 207 | 0.0 | 4.8 | 0.00 | 0.00 | 0.00 | 81 | 1014.2 |
| 20260505085540 | 12 | 202 | 0.0 | 4.8 | 0.00 | 0.00 | 0.00 | 82 | 1014.2 |
| 20260505084800 | 12 | 189 | 0.0 | 0.0 | 0.00 | 0.00 | 0.00 | 83 | 1014.2 |
| 20260505084743 | 12 | 156 | 0.0 | 0.0 | 0.00 | 0.00 | 0.00 | 83 | 1014.1 |
| 20260505083530 | 12 | 198 | 0.0 | 0.0 | 0.00 | 0.00 | 0.00 | 84 | 1014.0 |
| 20260505082800 | 12 | 60 | 0.0 | 0.0 | 0.00 | 0.00 | 0.00 | 83 | 1014.1 |
| 20260505082300 | 12 | 61 | 0.0 | 0.0 | 0.00 | 0.00 | 0.00 | 83 | 1014.0 |
| 20260505081801 | 12 | 39 | 0.0 | 0.0 | 0.00 | 0.00 | 0.00 | 82 | 1014.1 |
| 20260505081538 | 12 | 86 | 0.0 | 0.0 | 0.00 | 0.00 | 0.00 | 82 | 1014.0 |
| 20260505080800 | 12 | 212 | 0.0 | 0.0 | 0.00 | 0.00 | 0.00 | 82 | 1014.0 |
| 20260505080300 | 12 | 86 | 0.0 | 0.0 | 0.00 | 0.00 | 0.00 | 82 | 1013.9 |
| 20260505075759 | 12 | 46 | 0.0 | 0.0 | 0.00 | 0.00 | 0.00 | 82 | 1013.8 |
| 20260505075524 | 12 | 143 | 0.0 | 0.0 | 0.00 | 0.00 | 0.00 | 82 | 1014.1 |
| 20260505074747 | 12 | 146 | 0.0 | 0.0 | 0.00 | 0.00 | 0.00 | 81 | 1013.7 |
| 20260505074247 | 12 | 151 | 0.0 | 0.0 | 0.00 | 0.00 | 0.00 | 80 | 1013.8 |
| 20260505073747 | 13 | 163 | 0.0 | 0.0 | 0.00 | 0.00 | 0.00 | 79 | 1013.6 |
| 20260505073241 | 13 | 164 | 0.0 | 0.0 | 0.00 | 0.00 | 0.00 | 78 | 1013.7 |
| 20260505072738 | 13 | 212 | 0.0 | 0.0 | 0.00 | 0.00 | 0.00 | 78 | 1013.5 |
| 20260505072237 | 13 | 186 | 0.0 | 1.6 | 0.00 | 0.00 | 0.00 | 77 | 1013.5 |
| 20260505071959 | 13 | 193 | 0.0 | 6.4 | 0.00 | 0.00 | 0.00 | 76 | 1013.6 |
| 20260505071237 | 13 | 221 | 0.0 | 6.4 | 0.00 | 0.00 | 0.00 | 76 | 1013.5 |
| 20260505070748 | 13 | 203 | 0.0 | 4.8 | 0.00 | 0.00 | 0.00 | 77 | 1013.5 |
| 20260505070539 | 13 | 154 | 0.0 | 4.8 | 0.00 | 0.00 | 0.00 | 77 | 1013.5 |
| 20260505065735 | 13 | 182 | 0.0 | 3.2 | 0.00 | 0.00 | 0.00 | 77 | 1013.3 |
| 20260505065235 | 13 | 186 | 0.0 | 0.0 | 0.00 | 0.00 | 0.00 | 77 | 1013.3 |
| 20260505064733 | 13 | 152 | 0.0 | 1.6 | 0.00 | 0.00 | 0.00 | 76 | 1013.3 |
| 20260505064234 | 14 | 199 | 0.0 | 4.8 | 0.00 | 0.00 | 0.00 | 75 | 1013.3 |
| 20260505063734 | 14 | 206 | 1.6 | 4.8 | 0.00 | 0.00 | 0.00 | 74 | 1013.2 |
| 20260505063236 | 14 | 231 | 0.0 | 1.6 | 0.00 | 0.00 | 0.00 | 75 | 1013.1 |
| 20260505063003 | 14 | 187 | 0.0 | 0.0 | 0.00 | 0.00 | 0.00 | 76 | 1013.1 |
| 20260505062502 | 14 | 153 | 0.0 | 0.0 | 0.00 | 0.00 | 0.00 | 76 | 1013.0 |
| 20260505061733 | 14 | 97 | 0.0 | 1.6 | 0.00 | 0.00 | 0.00 | 75 | 1012.9 |
| 20260505061233 | 14 | 107 | 0.0 | 1.6 | 0.00 | 0.00 | 0.00 | 75 | 1013.1 |
| 20260505060730 | 14 | 196 | 0.0 | 0.0 | 0.00 | 0.00 | 0.00 | 74 | 1012.8 |
| 20260505060229 | 15 | 155 | 0.0 | 0.0 | 0.00 | 0.00 | 0.00 | 74 | 1012.7 |
| 20260505055719 | 15 | 82 | 0.0 | 0.0 | 0.00 | 0.00 | 0.00 | 73 | 1012.5 |
| 20260505055217 | 15 | 131 | 0.0 | 3.2 | 0.00 | 0.00 | 0.00 | 72 | 1012.6 |
| 20260505054716 | 15 | 193 | 0.0 | 6.4 | 0.00 | 0.00 | 0.00 | 72 | 1012.4 |
| 20260505054210 | 15 | 145 | 0.0 | 6.4 | 0.00 | 0.00 | 0.00 | 71 | 1012.5 |
| 20260505053931 | 15 | 181 | 0.0 | 3.2 | 0.00 | 0.00 | 0.00 | 71 | 1012.6 |
| 20260505053202 | 15 | 202 | 0.0 | 1.6 | 0.00 | 0.00 | 0.00 | 70 | 1012.4 |
| 20260505052703 | 15 | 182 | 1.6 | 1.6 | 0.00 | 0.00 | 0.00 | 70 | 1012.5 |
| 20260505052151 | 16 | 188 | 0.0 | 3.2 | 0.00 | 0.00 | 0.00 | 69 | 1012.4 |
| 20260505051908 | 16 | 174 | 0.0 | 3.2 | 0.00 | 0.00 | 0.00 | 68 | 1012.4 |
| 20260505051420 | 16 | 228 | 0.0 | 3.2 | 0.00 | 0.00 | 0.00 | 67 | 1012.3 |
| 20260505050642 | 16 | 220 | 0.0 | 4.8 | 0.00 | 0.00 | 0.00 | 68 | 1012.4 |
| 20260505050133 | 16 | 213 | 1.6 | 4.8 | 0.00 | 0.00 | 0.00 | 67 | 1012.2 |
| 20260505041626 | 17 | 253 | 1.6 | 14.5 | 0.00 | 0.00 | 0.00 | 61 | 1011.5 |
| 20260505041126 | 18 | 224 | 6.4 | 14.5 | 0.00 | 0.00 | 0.00 | 61 | 1011.5 |
| 20260505040626 | 18 | 250 | 6.4 | 12.9 | 0.00 | 0.00 | 0.00 | 60 | 1011.4 |
| 20260505040127 | 18 | 234 | 8.0 | 12.9 | 0.00 | 0.00 | 0.00 | 59 | 1011.1 |
| 20260505035626 | 18 | 222 | 6.4 | 12.9 | 0.00 | 0.00 | 0.00 | 58 | 1011.1 |
| 20260505035126 | 19 | 218 | 6.4 | 12.9 | 0.00 | 0.00 | 0.00 | 58 | 1011.2 |
| 20260505034853 | 19 | 224 | 3.2 | 14.5 | 0.00 | 0.00 | 0.00 | 58 | 1011.2 |
| 20260505034126 | 19 | 222 | 8.0 | 14.5 | 0.00 | 0.00 | 0.00 | 57 | 1011.1 |
| 20260505033850 | 20 | 219 | 4.8 | 11.3 | 0.00 | 0.00 | 0.00 | 56 | 1010.9 |
| 20260505033357 | 20 | 229 | 4.8 | 9.7 | 0.00 | 0.00 | 0.00 | 56 | 1010.8 |
| 20260505032626 | 20 | 203 | 3.2 | 9.7 | 0.00 | 0.00 | 0.00 | 55 | 1010.8 |
| 20260505032125 | 20 | 179 | 1.6 | 14.5 | 0.00 | 0.00 | 0.00 | 54 | 1011.1 |
| 20260505031627 | 20 | 233 | 4.8 | 14.5 | 0.00 | 0.00 | 0.00 | 54 | 1010.6 |
| 20260505031125 | 21 | 210 | 1.6 | 14.5 | 0.00 | 0.00 | 0.00 | 52 | 1010.4 |
| 20260505030626 | 21 | 129 | 3.2 | 14.5 | 0.00 | 0.00 | 0.00 | 52 | 1010.5 |
| 20260505030350 | 21 | 229 | 3.2 | 14.5 | 0.00 | 0.00 | 0.00 | 51 | 1010.2 |
| 20260505025842 | 22 | 233 | 3.2 | 12.9 | 0.00 | 0.00 | 0.00 | 50 | 1010.3 |
| 20260505025106 | 22 | 223 | 4.8 | 11.3 | 0.00 | 0.00 | 0.00 | 49 | 1010.4 |
| 20260505024557 | 22 | 217 | 3.2 | 11.3 | 0.00 | 0.00 | 0.00 | 48 | 1010.1 |
| 20260505024057 | 22 | 216 | 4.8 | 14.5 | 0.00 | 0.00 | 0.00 | 48 | 1010.2 |
| 20260505023557 | 22 | 254 | 6.4 | 14.5 | 0.00 | 0.00 | 0.00 | 47 | 1010.1 |
| 20260505023057 | 23 | 256 | 1.6 | 12.9 | 0.00 | 0.00 | 0.00 | 46 | 1010.1 |
| 20260505022824 | 24 | 211 | 6.4 | 12.9 | 0.00 | 0.00 | 0.00 | 45 | 1010.0 |
| 20260505022056 | 24 | 280 | 6.4 | 11.3 | 0.00 | 0.00 | 0.00 | 44 | 1010.0 |
| 20260505021822 | 25 | 291 | 3.2 | 12.9 | 0.00 | 0.00 | 0.00 | 43 | 1010.0 |
| 20260505021056 | 24 | 323 | 0.0 | 12.9 | 0.00 | 0.00 | 0.00 | 44 | 1010.0 |
| 20260505020555 | 24 | 265 | 3.2 | 12.9 | 0.00 | 0.00 | 0.00 | 44 | 1009.9 |
| 20260505020056 | 25 | 270 | 9.7 | 14.5 | 0.00 | 0.00 | 0.00 | 43 | 1010.0 |
| 20260505015554 | 25 | 279 | 8.0 | 14.5 | 0.00 | 0.00 | 0.00 | 43 | 1009.9 |
| 20260505015054 | 25 | 295 | 8.0 | 14.5 | 0.00 | 0.00 | 0.00 | 43 | 1009.8 |
| 20260505014606 | 26 | 260 | 4.8 | 9.7 | 0.00 | 0.00 | 0.00 | 41 | 1009.6 |
| 20260505014600 | 26 | 218 | 6.4 | 12.9 | 0.00 | 0.00 | 0.00 | 42 | 1009.8 |
| 20260505013555 | 26 | 225 | 1.6 | 6.4 | 0.00 | 0.00 | 0.00 | 41 | 1010.0 |
| 20260505013333 | 26 | 248 | 0.0 | 9.7 | 0.00 | 0.00 | 0.00 | 42 | 1009.8 |
| 20260505012544 | 26 | 288 | 0.0 | 9.7 | 0.00 | 0.00 | 0.00 | 41 | 1009.9 |
| 20260505012043 | 26 | 309 | 4.8 | 11.3 | 0.00 | 0.00 | 0.00 | 40 | 1009.7 |
| 20260505011545 | 26 | 233 | 1.6 | 12.9 | 0.00 | 0.00 | 0.00 | 41 | 1009.8 |
| 20260505011035 | 26 | 311 | 9.7 | 12.9 | 0.00 | 0.00 | 0.00 | 40 | 1009.6 |
| 20260505010533 | 26 | 322 | 4.8 | 12.9 | 0.00 | 0.00 | 0.00 | 40 | 1010.0 |
| 20260505010031 | 26 | 349 | 4.8 | 12.9 | 0.00 | 0.00 | 0.00 | 40 | 1009.8 |
| 20260505005757 | 26 | 229 | 6.4 | 14.5 | 0.00 | 0.00 | 0.00 | 40 | 1009.8 |
| 20260505005247 | 26 | 289 | 1.6 | 14.5 | 0.00 | 0.00 | 0.00 | 40 | 1009.9 |
| 20260505004521 | 26 | 280 | 6.4 | 11.3 | 0.00 | 0.00 | 0.00 | 39 | 1009.9 |
| 20260505004019 | 27 | 336 | 4.8 | 14.5 | 0.00 | 0.00 | 0.00 | 38 | 1009.6 |
| 20260505003520 | 26 | 266 | 1.6 | 14.5 | 0.00 | 0.00 | 0.00 | 39 | 1009.8 |
| 20260505003019 | 26 | 280 | 6.4 | 14.5 | 0.00 | 0.00 | 0.00 | 39 | 1009.8 |
| 20260505002519 | 27 | 274 | 6.4 | 9.7 | 0.00 | 0.00 | 0.00 | 39 | 1009.8 |
| 20260505002245 | 26 | 331 | 4.8 | 12.9 | 0.00 | 0.00 | 0.00 | 38 | 1009.9 |
| 20260505001518 | 27 | 344 | 3.2 | 12.9 | 0.00 | 0.00 | 0.00 | 39 | 1009.8 |
| 20260505001246 | 27 | 258 | 4.8 | 9.7 | 0.00 | 0.00 | 0.00 | 38 | 1009.8 |
| 20260505000740 | 27 | 250 | 3.2 | 12.9 | 0.00 | 0.00 | 0.00 | 37 | 1009.8 |
| 20260505000018 | 27 | 176 | 0.0 | 12.9 | 0.00 | 0.00 | 0.00 | 36 | 1009.8 |
| 20260504235517 | 27 | 229 | 4.8 | 12.9 | 0.00 | 0.00 | 0.00 | 34 | 1009.9 |
| 20260504235019 | 27 | 216 | 4.8 | 11.3 | 0.00 | 0.00 | 0.00 | 35 | 1010.0 |
| 20260504234516 | 27 | 250 | 0.0 | 11.3 | 0.00 | 0.00 | 0.00 | 37 | 1009.7 |
| 20260504234016 | 26 | 298 | 4.8 | 11.3 | 0.00 | 0.00 | 0.00 | 37 | 1009.6 |
| 20260504233736 | 27 | 10 | 1.6 | 11.3 | 0.00 | 0.00 | 0.00 | 37 | 1009.8 |
| 20260504233016 | 26 | 316 | 4.8 | 11.3 | 0.00 | 0.00 | 0.00 | 37 | 1009.8 |
| 20260504232517 | 27 | 315 | 4.8 | 11.3 | 0.00 | 0.00 | 0.00 | 36 | 1009.9 |
| 20260504232243 | 27 | 245 | 3.2 | 11.3 | 0.00 | 0.00 | 0.00 | 36 | 1009.9 |
| 20260504231515 | 27 | 263 | 4.8 | 12.9 | 0.00 | 0.00 | 0.00 | 37 | 1009.7 |
| 20260504231012 | 27 | 301 | 6.4 | 12.9 | 0.00 | 0.00 | 0.00 | 37 | 1009.8 |
| 20260504230511 | 27 | 234 | 6.4 | 14.5 | 0.00 | 0.00 | 0.00 | 37 | 1010.1 |
| 20260504230010 | 27 | 103 | 0.0 | 14.5 | 0.00 | 0.00 | 0.00 | 36 | 1010.3 |
| 20260504225512 | 27 | 228 | 6.4 | 14.5 | 0.00 | 0.00 | 0.00 | 36 | 1010.0 |
| 20260504225001 | 27 | 262 | 4.8 | 11.3 | 0.00 | 0.00 | 0.00 | 35 | 1010.1 |
| 20260504224513 | 27 | 243 | 1.6 | 11.3 | 0.00 | 0.00 | 0.00 | 35 | 1010.5 |
| 20260504224230 | 27 | 244 | 4.8 | 12.9 | 0.00 | 0.00 | 0.00 | 35 | 1010.3 |
| 20260504223500 | 27 | 266 | 1.6 | 12.9 | 0.00 | 0.00 | 0.00 | 36 | 1010.3 |
| 20260504223000 | 26 | 250 | 4.8 | 12.9 | 0.00 | 0.00 | 0.00 | 37 | 1010.5 |
| 20260504222501 | 26 | 296 | 3.2 | 12.9 | 0.00 | 0.00 | 0.00 | 38 | 1010.5 |
| 20260504222002 | 26 | 319 | 3.2 | 11.3 | 0.00 | 0.00 | 0.00 | 38 | 1010.4 |
| 20260504221501 | 27 | 283 | 3.2 | 14.5 | 0.00 | 0.00 | 0.00 | 37 | 1010.5 |
| 20260504221001 | 26 | 292 | 3.2 | 14.5 | 0.00 | 0.00 | 0.00 | 38 | 1010.6 |
| 20260504220500 | 26 | 28 | 4.8 | 11.3 | 0.00 | 0.00 | 0.00 | 38 | 1010.6 |
| 20260504220001 | 26 | 317 | 4.8 | 11.3 | 0.00 | 0.00 | 0.00 | 37 | 1010.5 |
| 20260504215501 | 26 | 238 | 3.2 | 11.3 | 0.00 | 0.00 | 0.00 | 38 | 1010.6 |
| 20260504215004 | 26 | 242 | 3.2 | 11.3 | 0.00 | 0.00 | 0.00 | 39 | 1010.7 |
| 20260504214727 | 26 | 337 | 6.4 | 11.3 | 0.00 | 0.00 | 0.00 | 39 | 1010.8 |
| 20260504214228 | 26 | 352 | 6.4 | 11.3 | 0.00 | 0.00 | 0.00 | 39 | 1010.9 |
| 20260504213722 | 26 | 252 | 4.8 | 12.9 | 0.00 | 0.00 | 0.00 | 39 | 1010.9 |
| 20260504213000 | 26 | 343 | 8.0 | 12.9 | 0.00 | 0.00 | 0.00 | 40 | 1011.1 |
| 20260504212501 | 26 | 330 | 6.4 | 12.9 | 0.00 | 0.00 | 0.00 | 40 | 1010.9 |
| 20260504211959 | 25 | 303 | 4.8 | 12.9 | 0.00 | 0.00 | 0.00 | 40 | 1010.9 |
| 20260504211500 | 26 | 293 | 6.4 | 12.9 | 0.00 | 0.00 | 0.00 | 41 | 1010.9 |
| 20260504210959 | 26 | 344 | 6.4 | 14.5 | 0.00 | 0.00 | 0.00 | 41 | 1010.8 |
| 20260504210500 | 26 | 341 | 6.4 | 16.1 | 0.00 | 0.00 | 0.00 | 40 | 1010.9 |
| 20260504205959 | 26 | 347 | 6.4 | 16.1 | 0.00 | 0.00 | 0.00 | 40 | 1010.9 |
| 20260504205503 | 26 | 329 | 3.2 | 12.9 | 0.00 | 0.00 | 0.00 | 40 | 1011.0 |
| 20260504205226 | 26 | 260 | 8.0 | 12.9 | 0.00 | 0.00 | 0.00 | 38 | 1010.9 |
| 20260504204459 | 26 | 327 | 6.4 | 11.3 | 0.00 | 0.00 | 0.00 | 40 | 1010.9 |
| 20260504203959 | 26 | 340 | 4.8 | 11.3 | 0.00 | 0.00 | 0.00 | 40 | 1010.9 |
| 20260504203459 | 26 | 76 | 6.4 | 11.3 | 0.00 | 0.00 | 0.00 | 40 | 1011.0 |
| 20260504202959 | 26 | 284 | 1.6 | 9.7 | 0.00 | 0.00 | 0.00 | 38 | 1011.1 |
| 20260504202457 | 26 | 277 | 6.4 | 9.7 | 0.00 | 0.00 | 0.00 | 39 | 1011.0 |
| 20260504201957 | 26 | 354 | 3.2 | 11.3 | 0.00 | 0.00 | 0.00 | 38 | 1010.8 |
| 20260504201718 | 25 | 248 | 1.6 | 11.3 | 0.00 | 0.00 | 0.00 | 40 | 1010.9 |
| 20260504200949 | 26 | 349 | 1.6 | 6.4 | 0.00 | 0.00 | 0.00 | 39 | 1011.0 |
| 20260504200659 | 26 | 357 | 1.6 | 6.4 | 0.00 | 0.00 | 0.00 | 38 | 1011.2 |
| 20260504195937 | 25 | 148 | 4.8 | 11.3 | 0.00 | 0.00 | 0.00 | 36 | 1011.1 |
| 20260504195435 | 25 | 214 | 6.4 | 11.3 | 0.00 | 0.00 | 0.00 | 34 | 1011.4 |
| 20260504195202 | 25 | 46 | 1.6 | 9.7 | 0.00 | 0.00 | 0.00 | 34 | 1011.2 |
| 20260504194436 | 25 | 290 | 3.2 | 6.4 | 0.00 | 0.00 | 0.00 | 34 | 1011.3 |
| 20260504194159 | 25 | 256 | 3.2 | 12.9 | 0.00 | 0.00 | 0.00 | 35 | 1011.4 |
| 20260504193436 | 25 | 122 | 0.0 | 12.9 | 0.00 | 0.00 | 0.00 | 37 | 1011.4 |
| 20260504192935 | 25 | 208 | 4.8 | 12.9 | 0.00 | 0.00 | 0.00 | 36 | 1011.2 |
| 20260504192915 | 25 | 186 | 1.6 | 12.9 | 0.00 | 0.00 | 0.00 | 38 | 1011.4 |
| 20260504192151 | 25 | 211 | 3.2 | 11.3 | 0.00 | 0.00 | 0.00 | 36 | 1011.3 |
| 20260504191421 | 25 | 275 | 8.0 | 12.9 | 0.00 | 0.00 | 0.00 | 37 | 1011.5 |
| 20260504191147 | 24 | 225 | 9.7 | 12.9 | 0.00 | 0.00 | 0.00 | 38 | 1011.5 |
| 20260504190422 | 25 | 232 | 9.7 | 11.3 | 0.00 | 0.00 | 0.00 | 38 | 1011.7 |
| 20260504190413 | 25 | 166 | 1.6 | 11.3 | 0.00 | 0.00 | 0.00 | 39 | 1011.4 |
| 20260504185410 | 25 | 199 | 1.6 | 11.3 | 0.00 | 0.00 | 0.00 | 40 | 1011.5 |
| 20260504184909 | 24 | 193 | 1.6 | 11.3 | 0.00 | 0.00 | 0.00 | 41 | 1011.5 |
| 20260504184359 | 25 | 213 | 8.0 | 9.7 | 0.00 | 0.00 | 0.00 | 42 | 1011.6 |
| 20260504183858 | 25 | 287 | 3.2 | 9.7 | 0.00 | 0.00 | 0.00 | 40 | 1011.6 |
| 20260504183358 | 25 | 124 | 3.2 | 9.7 | 0.00 | 0.00 | 0.00 | 42 | 1011.5 |
| 20260504182857 | 25 | 174 | 3.2 | 6.4 | 0.00 | 0.00 | 0.00 | 40 | 1011.8 |
| 20260504182355 | 25 | 181 | 1.6 | 9.7 | 0.00 | 0.00 | 0.00 | 41 | 1011.7 |
| 20260504181854 | 24 | 199 | 0.0 | 9.7 | 0.00 | 0.00 | 0.00 | 43 | 1011.8 |
| 20260504181351 | 24 | 192 | 4.8 | 4.8 | 0.00 | 0.00 | 0.00 | 41 | 1012.0 |
| 20260504180844 | 23 | 12 | 0.0 | 9.7 | 0.00 | 0.00 | 0.00 | 41 | 1011.9 |
| 20260504180606 | 24 | 213 | 3.2 | 9.7 | 0.00 | 0.00 | 0.00 | 42 | 1011.8 |
| 20260504180335 | 24 | 246 | 3.2 | 4.8 | 0.00 | 0.00 | 0.00 | 41 | 1011.6 |
| 20260504175340 | 23 | 265 | 0.0 | 6.4 | 0.00 | 0.00 | 0.00 | 44 | 1011.8 |
| 20260504174841 | 23 | 115 | 6.4 | 6.4 | 0.00 | 0.00 | 0.00 | 43 | 1011.9 |
| 20260504174553 | 23 | 237 | 0.0 | 6.4 | 0.00 | 0.00 | 0.00 | 43 | 1011.7 |
| 20260504174320 | 23 | 138 | 0.0 | 6.4 | 0.00 | 0.00 | 0.00 | 45 | 1011.8 |
| 20260504173330 | 22 | 156 | 1.6 | 4.8 | 0.00 | 0.00 | 0.00 | 48 | 1011.7 |
| 20260504173050 | 22 | 231 | 1.6 | 6.4 | 0.00 | 0.00 | 0.00 | 45 | 1011.8 |
| 20260504172329 | 22 | 162 | 6.4 | 6.4 | 0.00 | 0.00 | 0.00 | 46 | 1011.6 |
| 20260504171830 | 22 | 173 | 4.8 | 6.4 | 0.00 | 0.00 | 0.00 | 47 | 1012.0 |
| 20260504171328 | 22 | 224 | 0.0 | 6.4 | 0.00 | 0.00 | 0.00 | 47 | 1011.7 |
| 20260504171319 | 22 | 246 | 0.0 | 6.4 | 0.00 | 0.00 | 0.00 | 47 | 1011.8 |
| 20260504170329 | 21 | 101 | 1.6 | 4.8 | 0.00 | 0.00 | 0.00 | 49 | 1011.8 |
| 20260504160307 | 18 | 82 | 0.0 | 3.2 | 0.00 | 0.00 | 0.00 | 57 | 1011.7 |
| 20260504151028 | 14 | 157 | 0.0 | 1.6 | 0.00 | 0.00 | 0.00 | 75 | 1011.3 |
| 20260504150525 | 14 | 141 | 0.0 | 0.0 | 0.00 | 0.00 | 0.00 | 76 | 1011.6 |
| 20260504141300 | 10 | 172 | 0.0 | 0.0 | 0.00 | 0.00 | 0.00 | 89 | 1011.3 |
| 20260504140748 | 10 | 172 | 0.0 | 0.0 | 0.00 | 0.00 | 0.00 | 90 | 1011.2 |
| 20260504140238 | 10 | 185 | 0.0 | 0.0 | 0.00 | 0.00 | 0.00 | 90 | 1011.0 |
| 20260504130706 | 10 | 201 | 0.0 | 0.0 | 0.00 | 0.00 | 0.00 | 91 | 1010.6 |
| 20260504130207 | 10 | 201 | 0.0 | 0.0 | 0.00 | 0.00 | 0.00 | 91 | 1010.3 |
| 20260504120205 | 10 | 200 | 0.0 | 0.0 | 0.00 | 0.00 | 0.00 | 91 | 1010.2 |
| 20260504110641 | 11 | 214 | 0.0 | 0.0 | 0.00 | 0.00 | 0.00 | 90 | 1010.2 |
| 20260504110140 | 11 | 214 | 0.0 | 0.0 | 0.00 | 0.00 | 0.00 | 89 | 1010.2 |